EW2918 Weather Reports


time (UTC)temp
F
wind
direction
speed
knots
gust
knots
rain 1hr
in
rain 24hr
in
rain mn
in
humidity
%
barometer
mb
20220124100304 35 0 0.0 0.0 0.00 0.00 0.00 77 1012.2
20220124094804 35 0 0.0 0.0 0.00 0.00 0.00 77 1012.1
20220124094304 35 0 0.0 0.0 0.00 0.00 0.00 77 1012.2
20220124093805 35 0 0.0 0.0 0.00 0.00 0.00 77 1012.1
20220124093304 35 0 0.0 0.0 0.00 0.00 0.00 77 1012.1
20220124091804 35 0 0.0 0.0 0.00 0.00 0.00 77 1012.0
20220124091304 35 0 0.0 0.0 0.00 0.00 0.00 77 1011.9
20220124090804 35 0 0.0 0.0 0.00 0.00 0.00 77 1011.7
20220124090304 35 0 0.0 0.0 0.00 0.00 0.00 77 1011.7
20220124084804 35 0 0.0 0.0 0.00 0.00 0.00 77 1011.8
20220124084304 35 0 0.0 0.0 0.00 0.00 0.00 77 1011.9
20220124083804 35 0 0.0 0.0 0.00 0.00 0.00 77 1011.9
20220124083304 35 0 0.0 0.0 0.00 0.00 0.00 77 1011.9
20220124081804 35 0 0.0 0.0 0.00 0.00 0.00 77 1012.1
20220124081304 35 0 0.0 0.0 0.00 0.00 0.00 77 1012.1
20220124080804 35 0 0.0 0.0 0.00 0.00 0.00 77 1012.1
20220124080304 35 0 0.0 0.0 0.00 0.00 0.00 77 1012.0
20220124074804 35 0 0.0 0.0 0.00 0.00 0.00 77 1011.7
20220124074304 35 0 0.0 0.0 0.00 0.00 0.00 77 1011.7
20220124073804 35 0 0.0 0.0 0.00 0.00 0.00 77 1011.7
20220124073304 35 0 0.0 0.0 0.00 0.00 0.00 77 1011.7
20220124071804 35 0 0.0 0.0 0.00 0.00 0.00 77 1011.7
20220124071303 35 0 0.0 0.0 0.00 0.00 0.00 77 1011.7
20220124070804 35 0 0.0 0.0 0.00 0.00 0.00 77 1011.6
20220124070304 35 0 0.0 0.0 0.00 0.00 0.00 77 1011.5
20220124064803 35 0 0.0 0.0 0.00 0.00 0.00 77 1011.6
20220124064304 35 0 0.0 0.0 0.00 0.00 0.00 77 1011.6
20220124063804 35 0 0.0 0.0 0.00 0.00 0.00 77 1011.6
20220124063304 35 0 0.0 0.0 0.00 0.00 0.00 77 1011.6
20220124061804 35 0 0.0 0.0 0.00 0.00 0.00 77 1011.6
20220124061305 35 191 0.0 0.0 0.00 0.00 0.00 77 1011.6
20220124060806 35 191 0.0 0.0 0.00 0.00 0.00 77 1011.6
20220124060305 33 193 0.0 0.0 0.00 0.00 0.00 77 1011.7
20220124054805 36 193 0.0 0.0 0.00 0.00 0.00 74 1011.7
20220124054306 36 193 0.0 0.0 0.00 0.00 0.00 72 1011.7
20220124053805 37 193 0.0 0.0 0.00 0.00 0.00 71 1011.8
20220124053305 37 193 0.0 0.0 0.00 0.00 0.00 69 1011.8
20220124051805 36 193 0.0 0.0 0.00 0.00 0.00 75 1011.8
20220124051305 37 193 0.0 0.0 0.00 0.00 0.00 76 1011.9
20220124050816 36 193 0.0 0.0 0.00 0.00 0.00 73 1011.9
20220124050305 36 193 0.0 0.0 0.00 0.00 0.00 76 1011.9
20220124044805 37 193 0.0 0.9 0.00 0.00 0.00 72 1011.8
20220124044305 37 193 0.0 0.9 0.00 0.00 0.00 72 1011.8
20220124043806 36 193 0.0 0.0 0.00 0.00 0.00 73 1011.9
20220124043305 36 193 0.0 0.0 0.00 0.00 0.00 74 1011.8
20220124041805 36 193 0.0 0.0 0.00 0.00 0.00 74 1011.9
20220124041305 36 193 0.0 0.0 0.00 0.00 0.00 74 1012.0
20220124040805 36 193 0.0 0.0 0.00 0.00 0.00 75 1012.1
20220124040306 36 193 0.0 0.0 0.00 0.00 0.00 76 1012.1
20220124034805 37 193 0.0 0.0 0.00 0.00 0.00 75 1012.0
20220124034305 37 193 0.0 0.0 0.00 0.00 0.00 77 1012.0
20220124033805 37 193 0.0 0.0 0.00 0.00 0.00 74 1012.0
20220124033305 37 193 0.0 0.0 0.00 0.00 0.00 74 1011.9
20220124031805 38 193 0.0 0.0 0.00 0.00 0.00 76 1011.8
20220124031305 39 193 0.0 0.0 0.00 0.00 0.00 75 1011.6
20220124030805 39 193 0.0 0.0 0.00 0.00 0.00 72 1011.6
20220124030305 40 193 0.0 0.0 0.00 0.00 0.00 70 1011.6
20220124024805 41 193 0.0 0.9 0.00 0.00 0.00 67 1011.4
20220124024305 41 193 0.0 1.7 0.00 0.00 0.00 64 1011.3
20220124023804 42 193 0.0 2.6 0.00 0.00 0.00 62 1011.2
20220124023305 42 193 0.9 2.6 0.00 0.00 0.00 62 1011.2
20220124021805 42 193 0.9 1.7 0.00 0.00 0.00 62 1011.0
20220124021305 42 193 0.9 1.7 0.00 0.00 0.00 62 1011.0
20220124020805 43 193 0.9 1.7 0.00 0.00 0.00 62 1011.1
20220124020305 43 193 0.9 1.7 0.00 0.00 0.00 62 1011.1
20220124014805 43 193 0.9 1.7 0.00 0.00 0.00 62 1011.1
20220124014305 43 193 0.9 1.7 0.00 0.00 0.00 62 1011.2
20220124004305 45 193 0.0 1.7 0.00 0.00 0.00 61 1011.3
20220124003804 45 193 0.0 1.7 0.00 0.00 0.00 60 1011.3
20220124003305 45 193 0.0 1.7 0.00 0.00 0.00 60 1011.3
20220124001804 46 193 0.9 2.6 0.00 0.00 0.00 60 1011.3
20220124001304 46 193 0.9 1.7 0.00 0.00 0.00 60 1011.3
20220124000804 46 193 0.0 1.7 0.00 0.00 0.00 59 1011.3
20220124000304 46 193 0.9 1.7 0.00 0.00 0.00 59 1011.2
20220123234804 47 193 0.0 1.7 0.00 0.00 0.00 58 1011.1
20220123234304 47 193 0.0 1.7 0.00 0.00 0.00 58 1011.1
20220123233804 47 193 0.0 1.7 0.00 0.00 0.00 57 1011.1
20220123233304 47 193 0.0 0.9 0.00 0.00 0.00 57 1011.0
20220123231804 48 193 0.9 1.7 0.00 0.00 0.00 54 1011.0
20220123231304 48 193 0.0 1.7 0.00 0.00 0.00 54 1010.9
20220123230804 48 193 0.9 1.7 0.00 0.00 0.00 53 1010.9
20220123230304 48 193 0.0 0.9 0.00 0.00 0.00 53 1011.0
20220123224804 49 193 0.9 1.7 0.00 0.00 0.00 51 1011.1
20220123224303 49 193 0.0 2.6 0.00 0.00 0.00 50 1011.0
20220123223804 50 193 0.0 2.6 0.00 0.00 0.00 49 1011.0
20220123223306 50 193 0.0 2.6 0.00 0.00 0.00 49 1011.1
20220123204304 52 193 0.0 2.6 0.00 0.00 0.00 48 1011.3
20220123203804 52 193 0.9 2.6 0.00 0.00 0.00 46 1011.4
20220123203304 52 193 0.0 1.7 0.00 0.00 0.00 47 1011.4
20220123201805 52 193 0.0 2.6 0.00 0.00 0.00 47 1011.6
20220123201304 52 193 0.9 2.6 0.00 0.00 0.00 46 1011.6
20220123200805 52 193 0.9 2.6 0.00 0.00 0.00 46 1011.6
20220123200304 52 193 0.0 2.6 0.00 0.00 0.00 47 1011.8
20220123194806 53 193 0.9 1.7 0.00 0.00 0.00 45 1011.9
20220123193305 53 193 0.9 1.7 0.00 0.00 0.00 45 1012.2
20220123191805 54 193 0.9 2.6 0.00 0.00 0.00 43 1012.5
20220123191306 54 193 0.9 2.6 0.00 0.00 0.00 43 1012.7
20220123190805 54 193 0.9 2.6 0.00 0.00 0.00 42 1012.8
20220123190305 54 193 0.9 2.6 0.00 0.00 0.00 44 1012.8
20220123184805 54 193 0.9 1.7 0.00 0.00 0.00 42 1013.0
20220123184304 54 193 0.9 1.7 0.00 0.00 0.00 43 1013.0
20220123183804 54 193 0.9 2.6 0.00 0.00 0.00 43 1013.0
20220123183305 53 193 0.9 2.6 0.00 0.00 0.00 42 1013.0
20220123181805 54 193 0.0 1.7 0.00 0.00 0.00 44 1013.3
20220123181305 54 193 0.0 1.7 0.00 0.00 0.00 44 1013.4
20220123180805 53 193 0.0 1.7 0.00 0.00 0.00 46 1013.6
20220123180305 52 193 0.0 1.7 0.00 0.00 0.00 46 1013.6
20220123174804 50 193 0.0 1.7 0.00 0.00 0.00 45 1014.1
20220123174305 50 193 0.9 1.7 0.00 0.00 0.00 46 1014.2
20220123173805 49 193 0.9 1.7 0.00 0.00 0.00 46 1014.4
20220123173305 49 193 0.0 2.6 0.00 0.00 0.00 44 1014.6
20220123171805 47 193 0.9 2.6 0.00 0.00 0.00 48 1015.1
20220123171305 47 193 0.0 1.7 0.00 0.00 0.00 52 1015.0
20220123170804 47 193 0.9 1.7 0.00 0.00 0.00 55 1015.2
20220123170306 47 193 0.9 1.7 0.00 0.00 0.00 52 1015.3
20220123120804 25 0 0.0 0.0 0.00 0.00 0.00 93 1018.2
20220123120305 25 0 0.0 0.0 0.00 0.00 0.00 93 1018.2
20220123114805 25 0 0.0 0.0 0.00 0.00 0.00 93 1018.1
20220123114305 25 0 0.0 0.0 0.00 0.00 0.00 93 1018.1
20220123113805 25 0 0.0 0.0 0.00 0.00 0.00 93 1018.0
20220123113305 25 0 0.0 0.0 0.00 0.00 0.00 93 1018.1
20220123111805 25 0 0.0 0.0 0.00 0.00 0.00 93 1018.0
20220123111305 25 0 0.0 0.0 0.00 0.00 0.00 93 1018.0
20220123110805 25 0 0.0 0.0 0.00 0.00 0.00 93 1018.1
20220123110304 25 0 0.0 0.0 0.00 0.00 0.00 93 1018.1
20220123104804 25 0 0.0 0.0 0.00 0.00 0.00 93 1018.1
20220123104305 25 0 0.0 0.0 0.00 0.00 0.00 93 1018.2
20220123103805 25 0 0.0 0.0 0.00 0.00 0.00 93 1018.2
20220123103305 25 0 0.0 0.0 0.00 0.00 0.00 93 1018.2
20220123101804 25 0 0.0 0.0 0.00 0.00 0.00 93 1018.4
20220123101304 25 0 0.0 0.0 0.00 0.00 0.00 93 1018.4
20220123100804 25 0 0.0 0.0 0.00 0.00 0.00 93 1018.4